Regional Weather Roundup
Issued by NWS Newport/Morehead, NC

Current Version | Previous Version | Graphics & Text | Print | Product List | Glossary Off
Versions: 1 2 3 4 5 6 7 8 9 10 11 12 13 14 15 16 17 18 19 20 21 22 23 24 25 26 27 28 29 30 31 32 33 34 35 36 37 38 39 40 41 42 43 44 45 46 47 48 49 50

000
ASUS42 KMHX 281810
RWRMHX
WEATHER ROUNDUP FOR EASTERN NORTH CAROLINA
NATIONAL WEATHER SERVICE NEWPORT/MOREHEAD CITY NC
200 PM EDT MON JUL 28 2014

NOTE: "FAIR" INDICATES FEW OR NO CLOUDS BELOW 12,000 FEET
WITH NO SIGNIFICANT WEATHER AND/OR OBSTRUCTIONS TO VISIBILITY

NCZ015>017-031-032-045>047-102-103-281900-
NORTH COAST

CITY           SKY/WX    TMP DP  RH WIND       PRES   REMARKS
EDENTON        SUNNY     87  65  48 W14G22    29.76S
ELIZABETH CITY MOSUNNY   86  65  49 W20       29.74R
KITTY HAWK     CLEAR     87  65  47 W15G24    29.73S
MANTEO         NOT AVBL

$$

NCZ045>047-081-094-103-104-281900-
CENTRAL COAST

CITY           SKY/WX    TMP DP  RH WIND       PRES   REMARKS
FRISCO         MOSUNNY   86  76  71 SW12      29.78F
SWANQUARTER      N/A     88 N/A N/A SW8G15    29.74S

$$

NCZ095-097-098-100-101-281900-
SOUTHERN COAST

CITY           SKY/WX    TMP DP  RH WIND       PRES   REMARKS
BEAUFORT       PTSUNNY   85  76  74 SW16      29.80S
CEDAR ISLAND     N/A     90 N/A N/A SW6G14    29.82S
JACKSONVILLE   PTSUNNY   87  73  62 SW7       29.79F
NEWPORT        NOT AVBL
PINEY ISLAND   PTCLDY    89  71  55 SW13      29.78F
WILMINGTON     PTSUNNY   88  73  61 SW6       29.80F


$$

NCZ011>013-027>030-043-044-078>080-089-090>093-098-281900-
COASTAL PLAIN

CITY           SKY/WX    TMP DP  RH WIND       PRES   REMARKS
AHOSKIE        MOSUNNY   85  64  49 NW6       29.76F
CLINTON        PTSUNNY   89  72  56 SW3G16    29.78F
ELIZABETHTOWN  MOSUNNY   89  71  54 W6        29.80F
GOLDSBORO      MOSUNNY   90  69  51 W13       29.76F
GREENVILLE     MOSUNNY   88  66  48 W9G16     29.80F
HAVELOCK       PTSUNNY   88  71  57 W9        29.79F
KENANSVILLE    MOSUNNY   89  67  49 SW9       29.79F
KINSTON        MOSUNNY   90  66  45 W13       29.79F
NEW BERN       MOSUNNY   89  70  53 W5        29.79F
RICHLANDS      MOSUNNY   90  72  55 SW7       29.79F
ROANOKE RAPIDS NOT AVBL
ROCKY MOUNT      N/A     88  66  48 W9        29.79S
WASHINGTON     SUNNY     87  65  48 W12G17    29.77F
WHITEVILLE     PTSUNNY   90  76  63 SW6       29.80F HX 101

$$

AMZ130-135-150-152-154-156-158-170-250-252-270-ANZ085-086-088-633-658-670-281900-
MARINE OBSERVATIONS

STATION/POSITION TIME  TEMP    WIND        PRES    WAVE   SWELL
                       AIR SEA DIR/SP/G            HT/PER HT/PER
                 (UTC) (F)     (DEG/KT/KT) (MB)    (FT/S) (FT/S)
CHESAPEAKE LIGHT NOT AVBL
BUOY 44014       1800   81 78  240/ 17/ 19 1005.5    5/ 7   2/ 8
DUCK             1800   84 60  240/ 19/ 23 1006.1
2E DUCK          1800                        N/A     2/ 9
OREGON INLET     1800   87 82  250/ 15/ 19 1007.1
BUOY 44095       1800      78                N/A     4/ 7
20E OREGON INLET NOT AVBL
HATTERAS CG      1800   84 81  220/  8/ 12 1008.9
DIAMOND BUOY     1800          VRB 17/ 19  1008.4    5/ 6   2/ 9
CAPE LOOKOUT     1700   83     230/ 10/ 13 1009.3
BEAUFORT LAB     1800   84 82  220/  6/ 13 1008.8
30 SE NEW RIVER  1800   82 82  230/ 14/ 16 1009.8    5/ 6   2/ 8
5 SE WRIGHTSVILL 1700   82 83  280/  8/ 10   N/A
BUOY 41002       1702   82 81  240/ 17/ 19 1014.3    6/ 7   2/ 8
BUOY 41004       1800   84 83  220/ 17/ 21 1010.3    4/ 6   2/ 9

$$



USA.gov is the U.S. government's official web portal to all federal, state and local government web resources and services.